Year,Month,Day,Hour,Minute,Value (Times are PST for windgust in km/hr)
2021,03,26,00,44,1.60
2021,03,26,00,45,1.60
2021,03,26,00,46,1.60
2021,03,26,01,32,1.60
2021,03,26,01,33,1.60
2021,03,26,01,34,1.60
2021,03,26,01,35,1.60
2021,03,26,01,41,1.60
2021,03,26,01,42,1.60
2021,03,26,01,43,1.60
2021,03,26,02,53,1.60
2021,03,26,02,54,3.20
2021,03,26,02,55,1.60
2021,03,26,02,56,1.60
2021,03,26,02,57,1.60
2021,03,26,02,58,1.60
2021,03,26,02,59,3.20
2021,03,26,03,00,1.60
2021,03,26,03,45,1.60
2021,03,26,03,46,1.60
2021,03,26,06,04,1.60
2021,03,26,06,05,1.60
2021,03,26,06,07,1.60
2021,03,26,06,08,3.20
2021,03,26,06,38,1.60
2021,03,26,06,45,1.60
2021,03,26,06,46,1.60
2021,03,26,06,47,1.60
2021,03,26,06,48,1.60
2021,03,26,09,05,1.60
2021,03,26,09,07,1.60
2021,03,26,09,12,1.60
2021,03,26,09,14,1.60
2021,03,26,09,15,1.60
2021,03,26,09,16,1.60
2021,03,26,09,17,1.60
2021,03,26,09,18,1.60
2021,03,26,09,19,1.60
2021,03,26,09,20,1.60
2021,03,26,09,22,1.60
2021,03,26,09,23,1.60
2021,03,26,09,24,3.20
2021,03,26,09,25,3.20
2021,03,26,09,26,1.60
2021,03,26,09,27,4.80
2021,03,26,09,28,4.80
2021,03,26,09,29,3.20
2021,03,26,09,30,1.60
2021,03,26,09,31,1.60
2021,03,26,09,32,1.60
2021,03,26,09,33,1.60
2021,03,26,09,35,1.60
2021,03,26,09,37,1.60
2021,03,26,09,39,1.60
2021,03,26,09,44,1.60
2021,03,26,09,46,3.20
2021,03,26,09,47,3.20
2021,03,26,09,48,3.20
2021,03,26,09,49,4.80
2021,03,26,09,50,3.20
2021,03,26,09,51,4.80
2021,03,26,09,52,1.60
2021,03,26,09,53,3.20
2021,03,26,09,54,3.20
2021,03,26,09,55,3.20
2021,03,26,09,56,4.80
2021,03,26,09,57,3.20
2021,03,26,09,58,4.80
2021,03,26,09,59,1.60
2021,03,26,10,00,6.40
2021,03,26,10,01,6.40
2021,03,26,10,02,1.60
2021,03,26,10,03,1.60
2021,03,26,10,04,1.60
2021,03,26,10,05,1.60
2021,03,26,10,07,1.60
2021,03,26,10,08,3.20
2021,03,26,10,09,3.20
2021,03,26,10,10,1.60
2021,03,26,10,11,3.20
2021,03,26,10,12,3.20
2021,03,26,10,13,1.60
2021,03,26,10,14,4.80
2021,03,26,10,15,6.40
2021,03,26,10,16,4.80
2021,03,26,10,17,9.60
2021,03,26,10,18,9.60
2021,03,26,10,19,9.60
2021,03,26,10,20,11.30
2021,03,26,10,21,8.10
2021,03,26,10,22,12.90
2021,03,26,10,23,12.90
2021,03,26,10,24,11.30
2021,03,26,10,25,8.10
2021,03,26,10,26,8.10
2021,03,26,10,27,9.60
2021,03,26,10,28,12.90
2021,03,26,10,29,8.10
2021,03,26,10,30,6.40
2021,03,26,10,31,9.60
2021,03,26,10,32,8.10
2021,03,26,10,33,3.20
2021,03,26,10,34,4.80
2021,03,26,10,35,4.80
2021,03,26,10,36,4.80
2021,03,26,10,37,4.80
2021,03,26,10,38,6.40
2021,03,26,10,39,6.40
2021,03,26,10,40,4.80
2021,03,26,10,41,14.50
2021,03,26,10,42,12.90
2021,03,26,10,43,12.90
2021,03,26,10,44,14.50
2021,03,26,10,45,14.50
2021,03,26,10,46,11.30
2021,03,26,10,47,6.40
2021,03,26,10,48,3.20
2021,03,26,10,49,11.30
2021,03,26,10,50,11.30
2021,03,26,10,51,11.30
2021,03,26,10,52,4.80
2021,03,26,10,53,4.80
2021,03,26,10,54,3.20
2021,03,26,10,55,4.80
2021,03,26,10,56,4.80
2021,03,26,10,57,4.80
2021,03,26,10,58,4.80
2021,03,26,10,59,4.80
2021,03,26,11,00,14.50
2021,03,26,11,01,12.90
2021,03,26,11,02,8.10
2021,03,26,11,03,11.30
2021,03,26,11,04,9.60
2021,03,26,11,05,6.40
2021,03,26,11,06,6.40
2021,03,26,11,07,1.60
2021,03,26,11,08,14.50
2021,03,26,11,09,12.90
2021,03,26,11,10,16.10
2021,03,26,11,11,17.70
2021,03,26,11,12,8.10
2021,03,26,11,13,17.70
2021,03,26,11,14,17.70
2021,03,26,11,15,22.50
2021,03,26,11,16,14.50
2021,03,26,11,17,17.70
2021,03,26,11,18,12.90
2021,03,26,11,19,11.30
2021,03,26,11,20,9.60
2021,03,26,11,21,9.60
2021,03,26,11,22,12.90
2021,03,26,11,23,19.30
2021,03,26,11,24,20.90
2021,03,26,11,25,19.30
2021,03,26,11,26,20.90
2021,03,26,11,27,16.10
2021,03,26,11,28,20.90
2021,03,26,11,29,20.90
2021,03,26,11,30,12.90
2021,03,26,11,31,9.60
2021,03,26,11,32,16.10
2021,03,26,11,33,11.30
2021,03,26,11,34,17.70
2021,03,26,11,35,19.30
2021,03,26,11,36,12.90
2021,03,26,11,37,11.30
2021,03,26,11,38,19.30
2021,03,26,11,39,17.70
2021,03,26,11,40,12.90
2021,03,26,11,41,16.10
2021,03,26,11,42,16.10
2021,03,26,11,43,17.70
2021,03,26,11,44,12.90
2021,03,26,11,45,8.10
2021,03,26,11,46,8.10
2021,03,26,11,47,17.70
2021,03,26,11,48,16.10
2021,03,26,11,49,17.70
2021,03,26,11,50,20.90
2021,03,26,11,51,17.70
2021,03,26,11,52,20.90
2021,03,26,11,53,20.90
2021,03,26,11,54,19.30
2021,03,26,11,55,14.50
2021,03,26,11,56,19.30
2021,03,26,11,57,16.10
2021,03,26,11,58,16.10
2021,03,26,11,59,22.50
2021,03,26,12,00,20.90
2021,03,26,12,01,19.30
2021,03,26,12,02,20.90
2021,03,26,12,03,24.20
2021,03,26,12,04,14.50
2021,03,26,12,05,19.30
2021,03,26,12,06,20.90
2021,03,26,12,07,22.50
2021,03,26,12,08,24.20
2021,03,26,12,09,24.20
2021,03,26,12,10,14.50
2021,03,26,12,11,20.90
2021,03,26,12,12,14.50
2021,03,26,12,13,17.70
2021,03,26,12,14,20.90
2021,03,26,12,15,17.70
2021,03,26,12,16,16.10
2021,03,26,12,17,14.50
2021,03,26,12,18,14.50
2021,03,26,12,19,19.30
2021,03,26,12,20,14.50
2021,03,26,12,21,19.30
2021,03,26,12,22,16.10
2021,03,26,12,23,14.50
2021,03,26,12,24,12.90
2021,03,26,12,25,8.10
2021,03,26,12,26,9.60
2021,03,26,12,27,9.60
2021,03,26,12,28,16.10
2021,03,26,12,29,12.90
2021,03,26,12,30,14.50
2021,03,26,12,31,12.90
2021,03,26,12,32,11.30
2021,03,26,12,33,16.10
2021,03,26,12,34,16.10
2021,03,26,12,35,12.90
2021,03,26,12,36,17.70
2021,03,26,12,37,16.10
2021,03,26,12,38,12.90
2021,03,26,12,39,12.90
2021,03,26,12,40,16.10
2021,03,26,12,41,17.70
2021,03,26,12,42,17.70
2021,03,26,12,43,14.50
2021,03,26,12,44,14.50
2021,03,26,12,45,14.50
2021,03,26,12,46,12.90
2021,03,26,12,47,16.10
2021,03,26,12,48,20.90
2021,03,26,12,49,22.50
2021,03,26,12,50,20.90
2021,03,26,12,51,16.10
2021,03,26,12,52,16.10
2021,03,26,12,53,17.70
2021,03,26,12,54,20.90
2021,03,26,12,55,19.30
2021,03,26,12,56,20.90
2021,03,26,12,57,20.90
2021,03,26,12,58,24.20
2021,03,26,12,59,25.70
2021,03,26,13,00,20.90
2021,03,26,13,01,17.70
2021,03,26,13,02,20.90
2021,03,26,13,03,17.70
2021,03,26,13,04,16.10
2021,03,26,13,05,12.90
2021,03,26,13,06,14.50
2021,03,26,13,07,12.90
2021,03,26,13,08,12.90
2021,03,26,13,09,19.30
2021,03,26,13,10,14.50
2021,03,26,13,11,12.90
2021,03,26,13,12,19.30
2021,03,26,13,13,12.90
2021,03,26,13,14,17.70
2021,03,26,13,15,14.50
2021,03,26,13,16,17.70
2021,03,26,13,17,14.50
2021,03,26,13,18,11.30
2021,03,26,13,19,14.50
2021,03,26,13,20,19.30
2021,03,26,13,21,20.90
2021,03,26,13,22,20.90
2021,03,26,13,23,16.10
2021,03,26,13,24,19.30
2021,03,26,13,25,20.90
2021,03,26,13,26,19.30
2021,03,26,13,27,22.50
2021,03,26,13,28,22.50
2021,03,26,13,29,25.70
2021,03,26,13,30,16.10
2021,03,26,13,31,12.90
2021,03,26,13,32,17.70
2021,03,26,13,33,14.50
2021,03,26,13,34,17.70
2021,03,26,13,35,20.90
2021,03,26,13,36,12.90
2021,03,26,13,37,22.50
2021,03,26,13,38,22.50
2021,03,26,13,39,16.10
2021,03,26,13,40,16.10
2021,03,26,13,41,22.50
2021,03,26,13,42,20.90
2021,03,26,13,43,17.70
2021,03,26,13,44,17.70
2021,03,26,13,45,11.30
2021,03,26,13,46,20.90
2021,03,26,13,47,20.90
2021,03,26,13,48,27.40
2021,03,26,13,49,20.90
2021,03,26,13,50,20.90
2021,03,26,13,51,19.30
2021,03,26,13,52,20.90
2021,03,26,13,53,22.50
2021,03,26,13,54,22.50
2021,03,26,13,55,20.90
2021,03,26,13,56,19.30
2021,03,26,13,57,17.70
2021,03,26,13,58,20.90
2021,03,26,13,59,14.50
2021,03,26,14,00,20.90
2021,03,26,14,01,24.20
2021,03,26,14,02,22.50
2021,03,26,14,03,16.10
2021,03,26,14,04,16.10
2021,03,26,14,05,20.90
2021,03,26,14,06,22.50
2021,03,26,14,07,20.90
2021,03,26,14,08,16.10
2021,03,26,14,09,8.10
2021,03,26,14,10,19.30
2021,03,26,14,11,19.30
2021,03,26,14,12,20.90
2021,03,26,14,13,19.30
2021,03,26,14,14,16.10
2021,03,26,14,15,24.20
2021,03,26,14,16,24.20
2021,03,26,14,17,17.70
2021,03,26,14,18,24.20
2021,03,26,14,19,22.50
2021,03,26,14,20,12.90
2021,03,26,14,21,14.50
2021,03,26,14,22,11.30
2021,03,26,14,23,8.10
2021,03,26,14,24,12.90
2021,03,26,14,25,9.60
2021,03,26,14,26,24.20
2021,03,26,14,27,17.70
2021,03,26,14,28,8.10
2021,03,26,14,29,12.90
2021,03,26,14,30,11.30
2021,03,26,14,31,14.50
2021,03,26,14,32,19.30
2021,03,26,14,33,16.10
2021,03,26,14,34,9.60
2021,03,26,14,35,6.40
2021,03,26,14,36,16.10
2021,03,26,14,37,14.50
2021,03,26,14,38,8.10
2021,03,26,14,39,16.10
2021,03,26,14,40,12.90
2021,03,26,14,41,12.90
2021,03,26,14,42,9.60
2021,03,26,14,43,11.30
2021,03,26,14,44,9.60
2021,03,26,14,45,11.30
2021,03,26,14,46,12.90
2021,03,26,14,47,11.30
2021,03,26,14,48,12.90
2021,03,26,14,49,12.90
2021,03,26,14,50,12.90
2021,03,26,14,51,12.90
2021,03,26,14,52,8.10
2021,03,26,14,53,9.60
2021,03,26,14,54,12.90
2021,03,26,14,55,14.50
2021,03,26,14,56,11.30
2021,03,26,14,57,11.30
2021,03,26,14,58,9.60
2021,03,26,14,59,9.60
2021,03,26,15,00,12.90
2021,03,26,15,01,19.30
2021,03,26,15,02,12.90
2021,03,26,15,03,17.70
2021,03,26,15,04,20.90
2021,03,26,15,05,22.50
2021,03,26,15,06,24.20
2021,03,26,15,07,12.90
2021,03,26,15,08,16.10
2021,03,26,15,09,12.90
2021,03,26,15,10,16.10
2021,03,26,15,11,19.30
2021,03,26,15,12,17.70
2021,03,26,15,13,17.70
2021,03,26,15,14,16.10
2021,03,26,15,15,12.90
2021,03,26,15,16,16.10
2021,03,26,15,17,20.90
2021,03,26,15,18,14.50
2021,03,26,15,19,17.70
2021,03,26,15,20,16.10
2021,03,26,15,21,17.70
2021,03,26,15,22,20.90
2021,03,26,15,23,12.90
2021,03,26,15,24,16.10
2021,03,26,15,25,19.30
2021,03,26,15,26,20.90
2021,03,26,15,27,19.30
2021,03,26,15,28,19.30
2021,03,26,15,29,16.10
2021,03,26,15,30,14.50
2021,03,26,15,31,22.50
2021,03,26,15,32,17.70
2021,03,26,15,33,19.30
2021,03,26,15,34,24.20
2021,03,26,15,35,22.50
2021,03,26,15,36,16.10
2021,03,26,15,37,16.10
2021,03,26,15,38,16.10
2021,03,26,15,39,14.50
2021,03,26,15,40,17.70
2021,03,26,15,41,16.10
2021,03,26,15,42,14.50
2021,03,26,15,43,16.10
2021,03,26,15,44,14.50
2021,03,26,15,45,17.70
2021,03,26,15,46,17.70
2021,03,26,15,47,14.50
2021,03,26,15,48,17.70
2021,03,26,15,49,16.10
2021,03,26,15,50,20.90
2021,03,26,15,51,27.40
2021,03,26,15,52,20.90
2021,03,26,15,53,17.70
2021,03,26,15,54,12.90
2021,03,26,15,55,16.10
2021,03,26,15,56,14.50
2021,03,26,15,57,14.50
2021,03,26,15,58,12.90
2021,03,26,15,59,16.10
2021,03,26,16,00,22.50
2021,03,26,16,01,19.30
2021,03,26,16,02,17.70
2021,03,26,16,03,20.90
2021,03,26,16,04,20.90
2021,03,26,16,05,19.30
2021,03,26,16,06,14.50
2021,03,26,16,07,17.70
2021,03,26,16,08,16.10
2021,03,26,16,09,20.90
2021,03,26,16,10,14.50
2021,03,26,16,11,17.70
2021,03,26,16,12,14.50
2021,03,26,16,13,11.30
2021,03,26,16,14,16.10
2021,03,26,16,15,19.30
2021,03,26,16,16,19.30
2021,03,26,16,17,17.70
2021,03,26,16,18,17.70
2021,03,26,16,19,17.70
2021,03,26,16,20,19.30
2021,03,26,16,21,8.10
2021,03,26,16,22,16.10
2021,03,26,16,23,14.50
2021,03,26,16,24,16.10
2021,03,26,16,25,14.50
2021,03,26,16,26,16.10
2021,03,26,16,27,24.20
2021,03,26,16,28,20.90
2021,03,26,16,29,20.90
2021,03,26,16,30,22.50
2021,03,26,16,31,16.10
2021,03,26,16,32,14.50
2021,03,26,16,33,17.70
2021,03,26,16,34,17.70
2021,03,26,16,35,17.70
2021,03,26,16,36,20.90
2021,03,26,16,37,16.10
2021,03,26,16,38,14.50
2021,03,26,16,39,12.90
2021,03,26,16,40,19.30
2021,03,26,16,41,14.50
2021,03,26,16,42,14.50
2021,03,26,16,43,20.90
2021,03,26,16,44,22.50
2021,03,26,16,45,29.00
2021,03,26,16,46,12.90
2021,03,26,16,47,19.30
2021,03,26,16,48,19.30
2021,03,26,16,49,24.20
2021,03,26,16,50,20.90
2021,03,26,16,51,24.20
2021,03,26,16,52,17.70
2021,03,26,16,53,24.20
2021,03,26,16,54,24.20
2021,03,26,16,55,24.20
2021,03,26,16,56,20.90
2021,03,26,16,57,22.50
2021,03,26,16,58,14.50
2021,03,26,16,59,25.70
2021,03,26,17,00,27.40
2021,03,26,17,01,24.20
2021,03,26,17,02,22.50
2021,03,26,17,03,20.90
2021,03,26,17,04,19.30
2021,03,26,17,05,17.70
2021,03,26,17,06,19.30
2021,03,26,17,07,24.20
2021,03,26,17,08,12.90
2021,03,26,17,09,12.90
2021,03,26,17,10,24.20
2021,03,26,17,11,19.30
2021,03,26,17,12,19.30
2021,03,26,17,13,22.50
2021,03,26,17,14,19.30
2021,03,26,17,15,14.50
2021,03,26,17,16,14.50
2021,03,26,17,17,11.30
2021,03,26,17,18,19.30
2021,03,26,17,19,16.10
2021,03,26,17,20,17.70
2021,03,26,17,21,17.70
2021,03,26,17,22,12.90
2021,03,26,17,23,17.70
2021,03,26,17,24,17.70
2021,03,26,17,25,16.10
2021,03,26,17,26,14.50
2021,03,26,17,27,19.30
2021,03,26,17,28,14.50
2021,03,26,17,29,16.10
2021,03,26,17,30,19.30
2021,03,26,17,31,19.30
2021,03,26,17,32,17.70
2021,03,26,17,33,16.10
2021,03,26,17,34,17.70
2021,03,26,17,35,14.50
2021,03,26,17,36,12.90
2021,03,26,17,37,19.30
2021,03,26,17,38,14.50
2021,03,26,17,39,19.30
2021,03,26,17,40,24.20
2021,03,26,17,41,25.70
2021,03,26,17,42,16.10
2021,03,26,17,43,25.70
2021,03,26,17,44,20.90
2021,03,26,17,45,25.70
2021,03,26,17,46,19.30
2021,03,26,17,47,16.10
2021,03,26,17,48,20.90
2021,03,26,17,49,25.70
2021,03,26,17,50,22.50
2021,03,26,17,51,20.90
2021,03,26,17,52,14.50
2021,03,26,17,53,20.90
2021,03,26,17,54,17.70
2021,03,26,17,55,14.50
2021,03,26,17,56,19.30
2021,03,26,17,57,14.50
2021,03,26,17,58,17.70
2021,03,26,17,59,17.70
2021,03,26,18,00,12.90
2021,03,26,18,01,12.90
2021,03,26,18,02,17.70
2021,03,26,18,03,19.30
2021,03,26,18,04,27.40
2021,03,26,18,05,20.90
2021,03,26,18,06,17.70
2021,03,26,18,07,19.30
2021,03,26,18,08,19.30
2021,03,26,18,09,16.10
2021,03,26,18,10,16.10
2021,03,26,18,11,12.90
2021,03,26,18,12,14.50
2021,03,26,18,13,14.50
2021,03,26,18,14,19.30
2021,03,26,18,15,12.90
2021,03,26,18,16,17.70
2021,03,26,18,17,14.50
2021,03,26,18,18,17.70
2021,03,26,18,19,11.30
2021,03,26,18,20,16.10
2021,03,26,18,21,17.70
2021,03,26,18,22,14.50
2021,03,26,18,23,12.90
2021,03,26,18,24,12.90
2021,03,26,18,25,17.70
2021,03,26,18,26,16.10
2021,03,26,18,27,17.70
2021,03,26,18,28,11.30
2021,03,26,18,29,14.50
2021,03,26,18,30,12.90
2021,03,26,18,31,9.60
2021,03,26,18,32,9.60
2021,03,26,18,33,11.30
2021,03,26,18,34,9.60
2021,03,26,18,35,24.20
2021,03,26,18,36,16.10
2021,03,26,18,37,12.90
2021,03,26,18,38,22.50
2021,03,26,18,39,14.50
2021,03,26,18,40,19.30
2021,03,26,18,41,19.30
2021,03,26,18,42,9.60
2021,03,26,18,43,17.70
2021,03,26,18,44,17.70
2021,03,26,18,45,17.70
2021,03,26,18,46,20.90
2021,03,26,18,47,16.10
2021,03,26,18,48,17.70
2021,03,26,18,49,8.10
2021,03,26,18,50,9.60
2021,03,26,18,51,8.10
2021,03,26,18,52,12.90
2021,03,26,18,53,16.10
2021,03,26,18,54,12.90
2021,03,26,18,55,11.30
2021,03,26,18,56,12.90
2021,03,26,18,57,8.10
2021,03,26,18,58,11.30
2021,03,26,18,59,8.10
2021,03,26,19,00,14.50
2021,03,26,19,01,16.10
2021,03,26,19,02,11.30
2021,03,26,19,03,9.60
2021,03,26,19,04,6.40
2021,03,26,19,05,8.10
2021,03,26,19,06,8.10
2021,03,26,19,07,6.40
2021,03,26,19,08,8.10
2021,03,26,19,09,8.10
2021,03,26,19,10,9.60
2021,03,26,19,11,12.90
2021,03,26,19,12,8.10
2021,03,26,19,13,12.90
2021,03,26,19,14,4.80
2021,03,26,19,15,3.20
2021,03,26,19,16,12.90
2021,03,26,19,17,9.60
2021,03,26,19,18,6.40
2021,03,26,19,19,12.90
2021,03,26,19,20,11.30
2021,03,26,19,21,4.80
2021,03,26,19,22,6.40
2021,03,26,19,23,3.20
2021,03,26,19,24,4.80
2021,03,26,19,25,9.60
2021,03,26,19,26,6.40
2021,03,26,19,27,8.10
2021,03,26,19,28,9.60
2021,03,26,19,29,9.60
2021,03,26,19,30,11.30
2021,03,26,19,31,9.60
2021,03,26,19,32,9.60
2021,03,26,19,33,1.60
2021,03,26,19,34,8.10
2021,03,26,19,35,9.60
2021,03,26,19,36,9.60
2021,03,26,19,37,9.60
2021,03,26,19,38,11.30
2021,03,26,19,39,9.60
2021,03,26,19,40,8.10
2021,03,26,19,41,11.30
2021,03,26,19,42,4.80
2021,03,26,19,43,11.30
2021,03,26,19,44,9.60
2021,03,26,19,45,8.10
2021,03,26,19,46,8.10
2021,03,26,19,47,8.10
2021,03,26,19,48,6.40
2021,03,26,19,49,9.60
2021,03,26,19,50,9.60
2021,03,26,19,51,9.60
2021,03,26,19,52,9.60
2021,03,26,19,53,6.40
2021,03,26,19,54,8.10
2021,03,26,19,55,8.10
2021,03,26,19,56,9.60
2021,03,26,19,57,6.40
2021,03,26,19,58,6.40
2021,03,26,19,59,8.10
2021,03,26,20,00,6.40
2021,03,26,20,01,8.10
2021,03,26,20,02,8.10
2021,03,26,20,03,6.40
2021,03,26,20,04,8.10
2021,03,26,20,05,4.80
2021,03,26,20,06,3.20
2021,03,26,20,07,4.80
2021,03,26,20,08,6.40
2021,03,26,20,09,6.40
2021,03,26,20,10,6.40
2021,03,26,20,11,9.60
2021,03,26,20,12,8.10
2021,03,26,20,13,8.10
2021,03,26,20,14,8.10
2021,03,26,20,15,9.60
2021,03,26,20,16,8.10
2021,03,26,20,17,8.10
2021,03,26,20,18,8.10
2021,03,26,20,19,9.60
2021,03,26,20,20,9.60
2021,03,26,20,21,11.30
2021,03,26,20,22,12.90
2021,03,26,20,23,9.60
2021,03,26,20,24,9.60
2021,03,26,20,25,11.30
2021,03,26,20,26,9.60
2021,03,26,20,27,12.90
2021,03,26,20,28,11.30
2021,03,26,20,29,9.60
2021,03,26,20,30,12.90
2021,03,26,20,31,9.60
2021,03,26,20,32,9.60
2021,03,26,20,33,9.60
2021,03,26,20,34,8.10
2021,03,26,20,35,9.60
2021,03,26,20,36,6.40
2021,03,26,20,37,9.60
2021,03,26,20,38,11.30
2021,03,26,20,39,9.60
2021,03,26,20,40,11.30
2021,03,26,20,41,11.30
2021,03,26,20,42,11.30
2021,03,26,20,43,11.30
2021,03,26,20,44,9.60
2021,03,26,20,45,9.60
2021,03,26,20,46,9.60
2021,03,26,20,47,6.40
2021,03,26,20,48,9.60
2021,03,26,20,49,11.30
2021,03,26,20,50,11.30
2021,03,26,20,51,8.10
2021,03,26,20,52,8.10
2021,03,26,20,53,8.10
2021,03,26,20,54,6.40
2021,03,26,20,55,8.10
2021,03,26,20,56,8.10
2021,03,26,20,57,9.60
2021,03,26,20,58,8.10
2021,03,26,20,59,6.40
2021,03,26,21,00,6.40
2021,03,26,21,01,6.40
2021,03,26,21,02,11.30
2021,03,26,21,03,6.40
2021,03,26,21,04,6.40
2021,03,26,21,05,11.30
2021,03,26,21,06,9.60
2021,03,26,21,07,8.10
2021,03,26,21,08,8.10
2021,03,26,21,09,6.40
2021,03,26,21,10,6.40
2021,03,26,21,11,8.10
2021,03,26,21,12,9.60
2021,03,26,21,13,9.60
2021,03,26,21,14,6.40
2021,03,26,21,15,9.60
2021,03,26,21,16,8.10
2021,03,26,21,17,6.40
2021,03,26,21,18,6.40
2021,03,26,21,19,8.10
2021,03,26,21,20,8.10
2021,03,26,21,21,8.10
2021,03,26,21,22,8.10
2021,03,26,21,23,8.10
2021,03,26,21,24,8.10
2021,03,26,21,25,6.40
2021,03,26,21,26,6.40
2021,03,26,21,27,6.40
2021,03,26,21,28,8.10
2021,03,26,21,29,8.10
2021,03,26,21,30,8.10
2021,03,26,21,31,8.10
2021,03,26,21,32,9.60
2021,03,26,21,33,8.10
2021,03,26,21,34,6.40
2021,03,26,21,35,6.40
2021,03,26,21,36,9.60
2021,03,26,21,37,9.60
2021,03,26,21,38,9.60
2021,03,26,21,39,8.10
2021,03,26,21,40,8.10
2021,03,26,21,41,12.90
2021,03,26,21,42,11.30
2021,03,26,21,43,9.60
2021,03,26,21,44,8.10
2021,03,26,21,45,6.40
2021,03,26,21,46,6.40
2021,03,26,21,47,8.10
2021,03,26,21,48,9.60
2021,03,26,21,49,9.60
2021,03,26,21,50,11.30
2021,03,26,21,51,9.60
2021,03,26,21,52,11.30
2021,03,26,21,53,9.60
2021,03,26,21,54,9.60
2021,03,26,21,55,12.90
2021,03,26,21,56,8.10
2021,03,26,21,57,9.60
2021,03,26,21,58,8.10
2021,03,26,21,59,11.30
2021,03,26,22,00,6.40
2021,03,26,22,01,8.10
2021,03,26,22,02,8.10
2021,03,26,22,03,4.80
2021,03,26,22,04,1.60
2021,03,26,22,05,6.40
2021,03,26,22,06,3.20
2021,03,26,22,07,6.40
2021,03,26,22,08,4.80
2021,03,26,22,09,6.40
2021,03,26,22,10,6.40
2021,03,26,22,11,4.80
2021,03,26,22,12,4.80
2021,03,26,22,13,4.80
2021,03,26,22,14,4.80
2021,03,26,22,15,3.20
2021,03,26,22,16,4.80
2021,03,26,22,17,4.80
2021,03,26,22,18,4.80
2021,03,26,22,19,4.80
2021,03,26,22,20,8.10
2021,03,26,22,21,4.80
2021,03,26,22,22,3.20
2021,03,26,22,23,4.80
2021,03,26,22,24,4.80
2021,03,26,22,25,3.20
2021,03,26,22,26,3.20
2021,03,26,22,27,4.80
2021,03,26,22,28,4.80
2021,03,26,22,29,3.20
2021,03,26,22,30,3.20
2021,03,26,22,31,1.60
2021,03,26,22,32,1.60
2021,03,26,22,33,1.60
2021,03,26,22,34,1.60
2021,03,26,22,35,1.60
2021,03,26,22,36,1.60
2021,03,26,22,37,4.80
2021,03,26,22,38,6.40
2021,03,26,22,39,4.80
2021,03,26,22,40,3.20
2021,03,26,22,41,1.60
2021,03,26,22,42,3.20
2021,03,26,22,43,6.40
2021,03,26,22,44,8.10
2021,03,26,22,45,4.80
2021,03,26,22,46,3.20
2021,03,26,22,47,3.20
2021,03,26,22,48,1.60
2021,03,26,22,49,3.20
2021,03,26,22,50,1.60
2021,03,26,22,51,3.20
2021,03,26,22,52,1.60
2021,03,26,22,53,1.60
2021,03,26,23,00,1.60
2021,03,26,23,01,1.60
2021,03,26,23,02,1.60
2021,03,26,23,03,1.60
2021,03,26,23,04,3.20
2021,03,26,23,05,1.60
2021,03,26,23,06,1.60
2021,03,26,23,07,1.60
2021,03,26,23,20,1.60
2021,03,26,23,22,1.60
2021,03,26,23,23,1.60
2021,03,26,23,25,1.60
2021,03,26,23,26,1.60
2021,03,26,23,27,1.60
2021,03,26,23,34,1.60
2021,03,26,23,35,3.20
2021,03,26,23,36,3.20
2021,03,26,23,37,3.20
2021,03,26,23,38,3.20
2021,03,26,23,39,4.80
2021,03,26,23,40,3.20
2021,03,26,23,41,3.20
2021,03,26,23,42,3.20
2021,03,26,23,43,3.20
2021,03,26,23,44,3.20
2021,03,26,23,45,3.20
2021,03,26,23,46,3.20
2021,03,26,23,47,3.20
2021,03,26,23,48,3.20
2021,03,26,23,49,3.20
2021,03,26,23,50,1.60
2021,03,26,23,51,1.60
2021,03,26,23,53,1.60
2021,03,26,23,54,3.20
2021,03,26,23,55,3.20
2021,03,26,23,56,3.20
2021,03,26,23,57,4.80
2021,03,26,23,58,4.80
2021,03,26,23,59,3.20
